Location: Poughquag
(41.6090°N, 73.6820°W)
Time: 10:19:56
(UTC-05:00)

Vanguard 1 - Pass Details

Date: 07 December 2023
Orbit: 653 x 3826 km, 34.3° (Epoch: 25 February)

Event Time Altitude Azimuth Distance (km) Brightness Sun altitude
Rises 23:36:34 0° 284° (WNW) 7,524 14.7 -70.9°
Reaches altitude 10° 23:41:56 10° 277° (W) 6,731 14.3 -70.9°
Enters shadow 23:46:26 19° 270° (W) 6,121 13.9 -71.0°
Maximum altitude 00:01:45 38° 220° (SW) 4,829 - -70.7°
Drops below altitude 10° 00:19:04 10° 160° (SSE) 5,859 - -69.7°
Sets 00:23:24 0° 152° (SSE) 6,497 - -69.4°
